[[{"header":{"parameterUnit":"m.s-1","parameterCategory":1,"la1":30.2991,"la2":30.254,"lo1":-89.0895,"lo2":-89.0444,"dy":0.0017,"dx":0.0017,"nx":28,"ny":28,"refTime":"2024-02-07T09:00:00:Z","depth":0,"parameterNumber":2,"parameterNumberName":"U-component_of_WINDS"},"data":[0,0,0,0,0,0,0,0,0,0,0,0,0,0,0,0,0,0,0,0,0,0,0,0,0,0,0,0,0,0,0,0,0,0,0,0,0,0,0,0,0,0,0,0,0,0,0,0,0,0,0,0,0,0,0,0,0,0,-2.1091,-2.1092,0,-2.1151,-2.1152,-2.1153,-2.1153,-2.1152,-2.1152,-2.1151,-2.1213,-2.1216,-2.1218,0,0,0,0,0,0,0,0,0,0,0,0,0,-2.0979,-2.0981,-2.1091,-2.1092,-2.1093,-2.1151,-2.1152,-2.1153,-2.1153,-2.1152,-2.1152,-2.1151,-2.1213,-2.1215,-2.1218,0,0,0,0,0,0,0,0,0,0,0,0,0,-2.1032,-2.0981,-2.1091,-2.11,-2.1101,-2.1151,-2.1152,-2.1153,-2.1154,-2.1152,-2.1151,-2.115,-2.1212,-2.1215,-2.1219,-2.1263,0,0,-2.123,-2.1231,0,0,0,0,0,0,0,0,-2.1029,-2.1036,-2.1098,-2.11,-2.1101,-2.1144,-2.1135,-2.119,-2.1154,-2.1134,-2.1151,-2.115,-2.1191,-2.1196,-2.121,-2.1266,-2.1269,-2.123,-2.1232,-2.1234,-2.1235,0,0,0,0,0,0,0,-2.1025,-2.1034,-2.1115,-2.1099,-2.1101,-2.1101,-2.1108,-2.1145,-2.1168,-2.1135,-2.1136,-2.1143,-2.1192,-2.1207,-2.1212,-2.127,-2.123,-2.1233,-2.1235,-2.1237,-2.1366,-2.1367,0,0,0,0,0,0,-2.102,-2.103,-2.1113,-2.1117,-2.1061,-2.1104,-2.1111,-2.1131,-2.1168,-2.1172,-2.1144,-2.1142,-2.1201,-2.1207,-2.1214,-2.1268,-2.1234,-2.1237,-2.1239,-2.1365,-2.1366,-2.1368,0,0,0,0,0,0,-2.1017,-2.1027,-2.1111,-2.1074,-2.1084,-2.1108,-2.113,-2.1133,-2.1148,-2.1174,-2.1178,-2.1155,-2.1201,-2.1209,-2.1251,-2.127,-2.1238,-2.1242,-2.1363,-2.1365,-2.1367,-2.1378,0,0,0,0,0,0,-2.1014,-2.1026,-2.1043,-2.1074,-2.1086,-2.1147,-2.1131,-2.1135,-2.1154,-2.1153,-2.1185,-2.119,-2.12,-2.1246,-2.1255,-2.1275,-2.1244,-2.1361,-2.1364,-2.1366,-2.1376,-2.138,-2.1383,0,0,0,0,0,-2.101,-2.1044,-2.1044,-2.1054,-2.1108,-2.1148,-2.1155,-2.1166,-2.1155,-2.1173,-2.119,-2.1189,-2.1267,-2.125,-2.126,-2.1282,-2.136,-2.1363,-2.1366,-2.1374,-2.1379,-2.1383,0,0,0,0,0,0,-2.1015,-2.1048,-2.1048,-2.1094,-2.1118,-2.1148,-2.117,-2.1171,-2.1199,-2.1197,-2.121,-2.1218,-2.126,-2.1275,-2.1255,-2.1327,-2.1312,-2.1317,-2.1315,-2.132,-2.1324,-2.1319,-2.1247,0,0,0,0,0,-2.1022,-2.1051,-2.1078,-2.1115,-2.1128,-2.1147,-2.1164,-2.1171,-2.1197,-2.1207,-2.1227,-2.1252,-2.1283,-2.1302,-2.1332,-2.1378,-2.1385,-2.1398,-2.1402,-2.1405,-2.1409,-2.1434,-2.144,-2.1377,-2.1377,-2.1377,0,0,-2.1035,-2.1057,-2.1075,-2.1117,-2.1137,-2.1167,-2.1155,-2.1188,-2.121,-2.1212,-2.1253,-2.1268,-2.1298,-2.1342,-2.1363,-2.1356,-2.1428,-2.1409,-2.1411,-2.1413,-2.1438,-2.1444,-2.1449,-2.1379,-2.1379,-2.1378,0,0,-2.1075,-2.1095,-2.1128,-2.1147,-2.1177,-2.1189,-2.1197,-2.1227,-2.1237,-2.1278,-2.128,-2.1307,-2.1359,-2.138,-2.1397,-2.1445,-2.1445,-2.1454,-2.1474,-2.1499,-2.1503,-2.1508,-2.1525,-2.153,-2.1458,-2.1458,-2.1458,0,-2.1089,-2.1133,-2.1145,-2.1177,-2.1195,-2.1198,-2.1232,-2.125,-2.1288,-2.1301,-2.1293,-2.1358,-2.1378,-2.1427,-2.1439,-2.1453,-2.1462,-2.145,-2.1502,-2.1506,-2.1511,-2.1527,-2.1533,-2.1459,-2.1459,-2.1459,-2.1459,0,-2.1148,-2.1179,-2.1202,-2.1238,-2.1259,-2.1292,-2.1308,-2.1329,-2.1334,-2.1347,-2.1389,-2.1413,-2.1447,-2.1459,-2.1464,-2.1509,-2.1504,-2.1499,-2.1485,-2.1517,-2.1533,-2.1539,-2.146,-2.146,-2.146,-2.146,0,0,-2.1193,-2.1234,-2.1242,-2.1258,-2.1291,-2.1316,-2.1349,-2.1381,-2.1398,-2.1425,-2.1452,-2.1496,-2.1492,-2.1511,-2.1519,-2.1541,-2.1576,-2.1533,-2.1534,-2.154,-2.1627,-2.163,-2.1637,-2.1577,-2.1578,-2.1579,-2.1624,0,-2.1236,-2.1294,-2.1305,-2.1355,-2.1384,-2.1387,-2.1416,-2.1439,-2.1453,-2.148,-2.1495,-2.1525,-2.1517,-2.1529,-2.1551,-2.1567,-2.1594,-2.1564,-2.1603,-2.1604,-2.1595,-2.1645,-2.1648,-2.169,-2.163,-2.1631,-2.1632,0,-2.1294,-2.1321,-2.1374,-2.1402,-2.1415,-2.144,-2.1471,-2.1497,-2.1523,-2.1532,-2.1553,-2.1558,-2.1593,-2.1577,-2.1625,-2.1605,-2.1621,-2.1632,-2.1634,-2.1638,-2.162,-2.1649,-2.1703,-2.1709,-2.1641,-2.1641,-2.164,0,-2.1321,-2.137,-2.1408,-2.1422,-2.1456,-2.1474,-2.1489,-2.1515,-2.1534,-2.1561,-2.1573,-2.1604,-2.1621,-2.1646,-2.1659,-2.1647,-2.1706,-2.1691,-2.1714,-2.1713,-2.1725,-2.1724,-2.1782,-2.1737,-2.1737,-2.1737,-2.1737,0,-2.1368,-2.14,-2.1421,-2.1444,-2.148,-2.1493,-2.1529,-2.1544,-2.1566,-2.1593,-2.1598,-2.1623,-2.1639,-2.1667,-2.1678,-2.1715,-2.1723,-2.1731,-2.1733,-2.173,-2.1729,-2.1741,-2.1738,-2.1739,-2.1738,-2.1738,-2.1738,0,-2.1403,-2.1419,-2.146,-2.1489,-2.1497,-2.1523,-2.1547,-2.157,-2.1584,-2.1617,-2.1626,-2.1647,-2.168,-2.1696,-2.1736,-2.1744,-2.1786,-2.1787,-2.1777,-2.1778,-2.1799,-2.1796,-2.1866,-2.1875,-2.1824,-2.1825,-2.1825,0,-2.1432,-2.1457,-2.1488,-2.1506,-2.1521,-2.155,-2.1569,-2.1583,-2.1602,-2.1634,-2.1653,-2.1686,-2.1713,-2.1764,-2.1784,-2.1815,-2.1816,-2.1838,-2.1821,-2.1817,-2.1816,-2.1814,-2.1816,-2.1841,-2.1842,-2.1842,-2.1842,0,-2.1481,-2.1487,-2.1514,-2.1544,-2.1567,-2.1591,-2.1615,-2.1629,-2.1647,-2.1669,-2.1702,-2.1722,-2.1763,-2.1795,-2.1828,-2.1844,-2.1846,-2.1848,-2.1854,-2.1851,-2.1844,-2.1848,-2.1785,-2.1846,-2.1846,-2.1845,-2.1845,-2.1845,-2.1514,-2.1536,-2.1561,-2.1591,-2.161,-2.1632,-2.1655,-2.1671,-2.1699,-2.1733,-2.1739,-2.1774,-2.18,-2.1843,-2.186,-2.1888,-2.1883,-2.1893,-2.1895,-2.1897,-2.1898,-2.184,-2.1894,-2.1894,-2.1894,-2.1894,-2.1894,0,-2.1563,-2.1579,-2.1606,-2.1639,-2.1663,-2.1662,-2.1689,-2.1709,-2.1739,-2.1763,-2.1789,-2.1826,-2.1858,-2.1879,-2.1911,-2.1929,-2.1931,-2.1937,-2.1935,-2.1939,-2.1901,-2.1892,-2.1935,-2.1935,-2.1935,-2.1935,-2.1935,-2.1935,-2.1591,-2.1628,-2.1637,-2.1683,-2.17,-2.1733,-2.1748,-2.1769,-2.1787,-2.1829,-2.1855,-2.1868,-2.1891,-2.1925,-2.1954,-2.1959,-2.197,-2.1976,-2.1982,-2.1946,-2.1942,-2.1937,-2.1929,-2.1979,-2.1979,-2.2017,-2.2018,-2.2018]},{"header":{"parameterUnit":"m.s-1","parameterCategory":1,"la1":30.2991,"la2":30.254,"lo1":-89.0895,"lo2":-89.0444,"dy":0.0017,"dx":0.0017,"nx":28,"ny":28,"refTime":"2024-02-07T09:00:00:Z","depth":0,"parameterNumber":3,"parameterNumberName":"V-component_of_WINDS"},"data":[0,0,0,0,0,0,0,0,0,0,0,0,0,0,0,0,0,0,0,0,0,0,0,0,0,0,0,0,0,0,0,0,0,0,0,0,0,0,0,0,0,0,0,0,0,0,0,0,0,0,0,0,0,0,0,0,0,0,1.7313,1.7313,0,1.7365,1.7365,1.7366,1.7427,1.7428,1.7429,1.743,1.7487,1.7487,1.7488,0,0,0,0,0,0,0,0,0,0,0,0,0,1.7269,1.7269,1.7313,1.7313,1.7314,1.7365,1.7365,1.7366,1.7427,1.7428,1.743,1.7431,1.7486,1.7487,1.7488,0,0,0,0,0,0,0,0,0,0,0,0,0,1.7301,1.7269,1.7313,1.7351,1.7355,1.7365,1.7365,1.7366,1.7427,1.7428,1.743,1.7431,1.7486,1.7487,1.7488,1.7466,0,0,1.7491,1.7491,0,0,0,0,0,0,0,0,1.7299,1.7303,1.7344,1.7348,1.7352,1.7391,1.7371,1.74,1.7427,1.74,1.743,1.7432,1.7454,1.7458,1.7464,1.7468,1.7471,1.7491,1.7492,1.7492,1.7492,0,0,0,0,0,0,0,1.7297,1.7301,1.7333,1.7345,1.735,1.7366,1.7372,1.7376,1.7418,1.7402,1.7407,1.7412,1.7456,1.7463,1.7466,1.7472,1.7491,1.7492,1.7492,1.7493,1.7462,1.746,0,0,0,0,0,0,1.7288,1.7298,1.7332,1.7335,1.7329,1.7365,1.7372,1.7377,1.7418,1.7426,1.7411,1.7414,1.7461,1.7465,1.7468,1.7447,1.7492,1.7493,1.7493,1.7463,1.7461,1.746,0,0,0,0,0,0,1.7287,1.7291,1.733,1.7318,1.7324,1.7365,1.737,1.7378,1.7385,1.7425,1.7433,1.741,1.7462,1.7467,1.7466,1.745,1.7493,1.7494,1.7465,1.7463,1.7461,1.7402,0,0,0,0,0,0,1.7286,1.729,1.7282,1.7317,1.7324,1.7326,1.7369,1.7378,1.7386,1.7391,1.7426,1.7433,1.7464,1.7464,1.7467,1.7452,1.7495,1.7466,1.7464,1.7461,1.7406,1.7398,1.7392,0,0,0,0,0,1.7284,1.7264,1.7281,1.7285,1.7315,1.7325,1.7329,1.7363,1.7384,1.7377,1.7402,1.7432,1.745,1.7464,1.7467,1.7452,1.7468,1.7465,1.7461,1.7409,1.74,1.7392,0,0,0,0,0,0,1.7226,1.7269,1.7289,1.7279,1.7297,1.7335,1.7327,1.7352,1.7366,1.7371,1.7414,1.7421,1.7416,1.7433,1.7448,1.7433,1.7463,1.7461,1.7422,1.7414,1.7407,1.7404,1.7496,0,0,0,0,0,1.7212,1.7216,1.7253,1.7241,1.7249,1.7286,1.7291,1.7316,1.7337,1.7346,1.7372,1.7392,1.7403,1.7409,1.742,1.7408,1.7417,1.7399,1.7392,1.7386,1.7384,1.738,1.7373,1.745,1.745,1.745,0,0,1.7184,1.7207,1.7207,1.723,1.7247,1.7251,1.7292,1.7294,1.7298,1.7347,1.7348,1.7367,1.7393,1.7386,1.7384,1.7401,1.7365,1.7382,1.7377,1.7379,1.7376,1.7369,1.7363,1.7447,1.7448,1.7448,0,0,1.7134,1.7151,1.7144,1.716,1.7185,1.721,1.7207,1.7241,1.7255,1.7256,1.7293,1.7298,1.7315,1.7332,1.7343,1.7298,1.7327,1.7301,1.7266,1.7261,1.7255,1.725,1.7237,1.7231,1.7298,1.7298,1.7298,0,1.7096,1.7103,1.7137,1.7137,1.7147,1.7189,1.7182,1.7196,1.7224,1.723,1.7247,1.7269,1.7289,1.7288,1.7277,1.7284,1.7284,1.7298,1.7253,1.7248,1.7244,1.7232,1.7226,1.7295,1.7295,1.7295,1.7296,0,1.7056,1.7059,1.705,1.7076,1.7084,1.708,1.7115,1.7119,1.7142,1.7165,1.7166,1.7191,1.7209,1.721,1.7233,1.7212,1.7222,1.7245,1.7277,1.7233,1.7222,1.7218,1.729,1.7291,1.7292,1.7293,0,0,1.6975,1.7017,1.7013,1.7026,1.7056,1.706,1.7058,1.7075,1.7078,1.7095,1.7097,1.7109,1.7131,1.7143,1.7168,1.7164,1.7129,1.7188,1.719,1.7179,1.711,1.7094,1.7088,1.7147,1.7146,1.7146,1.7109,0,1.6933,1.6932,1.6963,1.6954,1.6959,1.6998,1.6997,1.7016,1.7036,1.7044,1.7067,1.7076,1.7103,1.7111,1.7108,1.7134,1.7117,1.7137,1.7151,1.7151,1.7146,1.7082,1.7065,1.7029,1.7104,1.7104,1.7103,0,1.6885,1.6898,1.689,1.6921,1.6924,1.6922,1.694,1.6946,1.6968,1.6984,1.6996,1.7024,1.7026,1.7054,1.7058,1.7071,1.7078,1.7091,1.7091,1.7096,1.7127,1.7088,1.7018,1.7014,1.7096,1.7097,1.7097,0,1.6829,1.6845,1.6843,1.6851,1.6886,1.6884,1.6899,1.6922,1.693,1.6946,1.6952,1.6967,1.6976,1.6988,1.702,1.7036,1.7021,1.7051,1.7036,1.7035,1.7034,1.7034,1.6967,1.7033,1.7033,1.7033,1.7033,0,1.6781,1.6776,1.6818,1.6817,1.6812,1.6846,1.684,1.6859,1.6879,1.6883,1.6917,1.692,1.696,1.6968,1.6993,1.6994,1.6997,1.7011,1.7019,1.701,1.7008,1.7018,1.7022,1.7032,1.7032,1.7032,1.7033,0,1.672,1.6748,1.6748,1.678,1.6788,1.6783,1.6811,1.6812,1.6834,1.6838,1.6841,1.6876,1.6887,1.6919,1.6939,1.6955,1.695,1.6962,1.6943,1.6948,1.6932,1.6934,1.6871,1.6865,1.6932,1.6931,1.6931,0,1.6689,1.6685,1.6717,1.6721,1.6734,1.674,1.6748,1.6781,1.6789,1.6813,1.6811,1.6824,1.6838,1.6854,1.6882,1.6897,1.6911,1.6887,1.6914,1.6905,1.6914,1.6915,1.6915,1.6883,1.6882,1.6881,1.6881,0,1.6632,1.6646,1.6655,1.6669,1.6678,1.6691,1.6706,1.6708,1.6745,1.6751,1.6762,1.6772,1.6791,1.6805,1.6824,1.6841,1.6868,1.6871,1.6869,1.6862,1.6852,1.686,1.693,1.6874,1.6874,1.6875,1.6875,1.6876,1.6587,1.6586,1.6607,1.6617,1.6631,1.6644,1.6647,1.6668,1.6678,1.6695,1.6714,1.6723,1.6746,1.6774,1.6789,1.6797,1.6812,1.6808,1.6807,1.6807,1.6804,1.6848,1.6801,1.6801,1.6801,1.6801,1.6802,0,1.6534,1.6549,1.6557,1.6577,1.6584,1.6606,1.6624,1.6629,1.6637,1.6654,1.6666,1.6679,1.6692,1.672,1.6736,1.6738,1.6751,1.6741,1.6743,1.6747,1.6789,1.679,1.6731,1.6731,1.6731,1.6731,1.6731,1.6731,1.6507,1.6507,1.6523,1.653,1.6546,1.6554,1.6563,1.6575,1.659,1.6603,1.6613,1.663,1.6653,1.6671,1.6684,1.6692,1.6698,1.6685,1.6697,1.6737,1.6744,1.675,1.6752,1.6685,1.6685,1.6655,1.6654,1.6654]}]]